Regional Weather Roundup
Issued by NWS Sterling, VA

Home | Current Version | Previous Version | Graphics & Text | Print | Product List | Glossary On
Versions: 1 2 3 4 5 6 7 8 9 10 11 12 13 14 15 16 17 18 19 20 21 22 23 24 25 26 27 28 29 30 31 32 33 34 35 36 37 38 39 40 41 42 43 44 45 46 47 48 49 50
000
ASUS41 KLWX 230210
RWRLWX

REGIONAL WEATHER ROUNDUP
NATIONAL WEATHER SERVICE BALTIMORE MD/WASHINGTON DC
1000 PM EDT TUE JUL 22 2014

Note: "FAIR" indicates few or no clouds below 12,000 feet
with no significant weather and/or obstructions to visibility.
 TC=TEMPERATURE CELSIUS

 * =Non NWS site. Station does not report precipitation (e.g. rain,
    snow, etc.), thunder, or fog.

DCZ001-MDZ009-015-VAZ040>042-051-053>054-230300-
WASHINGTON METRO
  /KDAA//-FT BELVOIR

CITY           SKY/WX    TMP DP  RH WIND       PRES   REMARKS
WASHINGTON NAT FAIR      80  67  64 S7        30.10R
DULLES         FAIR      76  69  79 S5        30.10R
ANDREWS AFB    FAIR      74  67  78 SE7       30.10R
QUANTICO       FAIR      79  71  76 S8        30.10R
COLLEGE PARK*  FAIR      79  68  69 CALM      30.09S
LEESBURG*      FAIR      79  73  83 S6        30.10S
GAITHERSBURG*  FAIR      77  68  73 S5        30.14S

$$

MDZ006>007-011-014-230300-
BALTIMORE METRO

CITY           SKY/WX    TMP DP  RH WIND       PRES   REMARKS
BWI AIRPORT    FAIR      76  63  64 S3        30.08S
MD SCIENCE CTR   N/A     80  63  55 MISG      30.09R
MARTIN STATE   PTCLDY    81  70  69 S8        30.10R
ANNAPOLIS      FAIR      78  66  66 S6        30.09R
FORT MEADE*    FAIR      70  66  88 CALM      30.11S

$$

MDZ012-015-019>023-230300-
MARYLAND EASTERN SHORE

CITY           SKY/WX    TMP DP  RH WIND       PRES   REMARKS
OCEAN CITY     FAIR      69  67  93 CALM      30.11S
SALISBURY      NOT AVBL
BAY BRIDGE AP*   N/A     77  64  65 S5        30.10R
CAMBRIDGE*     FAIR      77  64  65 CALM      30.10S

$$

MDZ017>025-230300-
SOUTHERN MARYLAND

CITY           SKY/WX    TMP DP  RH WIND       PRES   REMARKS
PATUXENT RIVER FAIR      75  67  76 S5        30.10R
ST INIGOES     NOT AVBL
LEONARDTOWN*   FAIR      73  64  73 CALM      30.12R

$$

MDZ003>005-230300-
NORTH CENTRAL MARYLAND

CITY           SKY/WX    TMP DP  RH WIND       PRES   REMARKS
FREDERICK*     FAIR      77  73  88 SE3       30.11R
HAGERSTOWN APT FAIR      79  70  74 S7        30.08S
WESTMINSTER*   FAIR      77  72  83 S7        30.11S

$$

MDZ501>502-230300-
WESTERN MARYLAND

CITY           SKY/WX    TMP DP  RH WIND       PRES   REMARKS
OAKLAND*       FAIR      72  66  83 CALM      30.19S
CUMBERLAND*    FAIR      81  70  69 CALM      30.11R

$$

VAZ025>031-230300-
SHENANDOAH VALLEY

CITY           SKY/WX    TMP DP  RH WIND       PRES   REMARKS
WINCHESTER*    FAIR      77  70  78 S5        30.10R
STAUNTON*      FAIR      76  68  77 S3        30.14R

$$

WVZ021-048>050-054>055-230300-
EASTERN WEST VIRGINIA PANHANDLE

CITY           SKY/WX    TMP DP  RH WIND       PRES   REMARKS
MARTINSBURG    FAIR      77  69  76 SE3       30.09R
PETERSBURG*    CLOUDY    76  68  75 CALM      30.10R

$$

VAZ036>039-050-230300-
CENTRAL FOOTHILLS

CITY           SKY/WX    TMP DP  RH WIND       PRES   REMARKS
CHARLOTTESVILL FAIR      76  69  79 S6        30.10R
ORANGE*        FAIR      73  70  88 CALM      30.11S

$$

VAZ055>057-230300-
NORTH AND CENTRAL PIEDMONT

CITY           SKY/WX    TMP DP  RH WIND       PRES   REMARKS
FREDERICKSBRG* FAIR      79  71  78 CALM      30.09R
STAFFORD*      FAIR      73  73 100 CALM      30.14R

$$

NCZ024-NYZ072-PAZ021-071-VAZ022-071-230300-
OTHER REGIONAL OBSERVATIONS

CITY           SKY/WX    TMP DP  RH WIND       PRES   REMARKS
NEW YORK CITY  FAIR      78  66  66 VRB5      30.08F
PHILADELPHIA   FAIR      77  59  53 S8        30.10R
PITTSBURGH     FAIR      80  68  66 SW3       30.06S
ROANOKE        FAIR      77  68  73 S7        30.15R
RICHMOND       FAIR      77  69  76 SE7       30.09S
RALEIGH        FAIR      75  71  87 CALM      30.11R

$$

ANZ530>537-230300-
MARINE OBSERVATIONS

STATION/POSITION TIME  TEMP    WIND        PRES
                       AIR SEA DIR/SP/G
                 (UTC) (F)     (DEG/KT/KT) (MB)
THOMAS PT LIGHT  0200   79 79  180/ 15/ 16 1019.5R
BALT KEY BRIDGE  0200   80     170/ 12/ 14 1018.4R
COVE POINT       0200   79     180/ 12/ 14 1018.9R
LEWISETTA        0200   76 82  180/  6/  8 1018.8S
SOLOMONS ISLAND  0200      82                N/A
PINEY POINT      0200          180/ 10/ 12   N/A

$$



USA.gov is the U.S. government's official web portal to all federal, state and local government web resources and services.